{"data":{"norad_id":58181,"intl_designator":"2023-167G","name":"STARLINK-30821","alt_names":[],"object_type":"PAYLOAD","status":"ACTIVE","operator":null,"country":"US","launch_date":"2023-10-30","launch_site_code":"AFETR","launch_vehicle":null,"mission":null,"orbit_class":"UNKNOWN","rcs_meters":null,"size_class":null,"mass_kg":null,"dimensions":null,"purposes":["comms"],"wikipedia_slug":null,"has_3d_model":false,"image_url":null,"decayed_at":null,"tle_current":{"epoch":"2026-09-19T23:57:41.518080Z","epoch_age_seconds":183762,"freshness":"STALE","line1":"1 58181U 23167G   26262.99839720 -.00003161  00000+0 -10543-3 0  9995","line2":"2 58181  43.0032 125.9116 0001071 266.8414  93.2315 15.27573146160698","mean_motion":15.27573146,"eccentricity":0.0001071,"inclination_deg":43.0032,"raan_deg":125.9116,"arg_perigee_deg":266.8414,"mean_anomaly_deg":93.2315,"bstar":-0.00010543,"rev_number":16069,"period_min":94.267171674933,"perigee_km":482.33478422916,"apogee_km":483.80445468705,"semimajor_km":6861.2066194581,"source":"CELESTRAK","updated_at":"2026-09-21T09:00:33.827073Z"}}}